Location: Antoign�
(47.0844°N, 0.1131°W)
Time: 21:18:15
(UTC+00:00)

Meteor 1-11 Rocket - Pass Details

Date: 03 March 2021
Orbit: 831 x 916 km, 81.2° (Epoch: 14 April)

Event Time Altitude Azimuth Distance (km) Brightness Sun altitude
Rises 19:23:43 0° 170° (S) 3,466 6.7 -16.9°
Reaches altitude 10° 19:26:15 10° 165° (SSE) 2,518 5.9 -17.3°
Maximum altitude 19:31:40 46° 94° (E) 1,143 3.9 -18.2°
Drops below altitude 10° 19:37:00 10° 22° (NNE) 2,483 6.0 -19.1°
Sets 19:39:29 0° 17° (NNE) 3,413 6.8 -19.5°
